Погода Красный Чикой

Погода Красный Чикой : погода сейчас, прогноз погоды и архив. Всё, что Вы хотите узнать о погоде Красный Чикой!

Хотите узнать прогноз погоды Красный Чикой? Тогда Вам сюда: Погода Красный Чикой

Поиск расширенной информации на нашем сайте:

Полезная информация: Как сделать запоминающуюся визитку www.vizitkidarom.ru.

Другие новости

Новости СМИ2

Главная страница сайта

Новости сайта

03.07.2017

Напоминаем, что на нашем специализированном сайте Метеоцентр.Азия вы можете получить высокодетализированные автоматические прогнозы погоды по пунктам России, СНГ и мира в авиационном формате (включающие направление и скорость ветра, видимость, явления погоды, количество и форму облачности, нижнюю и верхнюю границу облачности).

Рекомендуем: Янукович історія Вінниці www.imsu-vinnycja.com.

Погода Красный Чикой - сегодня

Время (UTC), дата Ветер
(°,м/с) 
Видим.   Явления Облачность Т
(°С)
Тd
(°С)
f(%) Тe
(°С)
Pmin
(гПа)
dP
(гПа)
Po
(мм)
O2
(г/м3)
Тmin Tmax R s Состояние
почвы
18 22.07.17 070 (В) 20000 м    8/3 1000 м средняя, верхняя 
[Sc|Ac lent|Ci fib]
+11.1 +9.9 92 +15  1013.5  0.4  694  267           
21 22.07.17 тихо ()   20000 м    8/3 1000 м средняя, верхняя 
[Sc|Ac lent|Ci fib]
+8.8 +8.1 95 +9  1014.9  0.6  694  269           
00 23.07.17 210 (ЮЗ) 20000 м    3/3 600 м 
[St]
+13.5 +11.2 86 +18  1013.8  0.5  695  264  +8.7        сухая 
03 23.07.17 200 (Ю) 20000 м    4/4 1000 м кучево-дожд. 
[Cb cap]
+22.4 +9.7 44 +25  1009.9  -1.1  694  257           
06 23.07.17 330 (СЗ) 20000 м    9/5 1000 м кучево-дожд., средняя, верхняя 
[Cb cap|Ac lent|Ci sp]
+25.1 +6.6 31 +25  1008.1  -1.1  693  255           
09 23.07.17 330 (СЗ) 5{11}  20000 м    8/4 1000 м кучево-дожд., верхняя 
[Cb cap|Ci sp]
+25.1 +7.2 32 +25  1007.6  -0.4  693  254           
12 23.07.17 320 (СЗ) 20000 м    4/3 1000 м верхняя 
[Cu hum|Ci sp]
+22.9 +8.1 39 +23  1009.1  0.8  693  256    +25.8       
15 23.07.17 040 (СВ) 20000 м    3/3 1000 м верхняя 
[Cu hum|Ci fib]
+14.9 +11 77 +20  1012.8  1.3  694  263           
18 23.07.17 180 (Ю) 20000 м    ясно 
+11 +9.4 90 +14  1014.4  0.2  694  267           
21 23.07.17 тихо ()   10 км  туман на расстоянии  3/0 средняя 
[Ac trans]
+8.3 +8 98 +8  1015.6  0.3  695  270           
00 24.07.17 080 (В) 0500 м  туман  ?/?  
+11.2 +10.4 95 +14  1013.8  -0.7  694  267  +8.2        сухая 
03 24.07.17 120 (ЮВ) 20000 м  {туман}  10/1 1000 м средняя, верхняя 
[Cu med, cong|Ac lent|Ci fib]
+19.6 +11.6 60 +26  1009.5  -1.5  693  258           
06 24.07.17 170 (Ю) 20000 м  {туман}  10/3 1000 м средняя, верхняя 
[Cu med, cong|Ac cast|Ci fib]
+24.9 +10.6 41 +29  1005.8  -2  691  253           
09 24.07.17 210 (ЮЗ) 20000 м    10/4 1000 м кучево-дожд., средняя, верхняя 
[Cb cap|Ac lent|Ci fib]
+25.2 +8.1 34 +26  1004.4  -1.2  691  253           
12 24.07.17 330 (СЗ) 20000 м    10/5 1000 м кучево-дожд., средняя, верхняя 
[Cb cap|Ac As|Ci sp]
+17.2 +14.1 82 +26  1007.5  0.8  691  259    +25.6       
15 24.07.17 010 (С) 10 км  слаб. дождь  10/5 1000 м средняя 
[Sc|Ac As]
+15.6 +14.1 91 +26  1008  691  260           
18 24.07.17 тихо ()   20000 м  {дождь}  10/5 1000 м средняя 
[Sc|Ac As]
+14.3 +13.7 96 +23  1007.6  -0.8  691  261           
21 24.07.17 180 (Ю) 20000 м    10/6 1000 м кучево-дожд., средняя 
[Cb cap|Ac As]
+13.1 +12.4 96 +20  1007.2  -0.8  690  263           
00 25.07.17 170 (Ю) 20000 м    9/6 1000 м средняя, верхняя 
[Cu med, cong|Ac lent|Ci fib]
+13 +12.3 96 +20  1007.2  690  263  +13    0.3    влажная 
03 25.07.17 140 (ЮВ) 20000 м    9/6 1000 м средняя, верхняя 
[Cu Sc|Ac lent|Ci fib]
+19.6 +13.2 67 +29  1004.4  -0.5  689  256           
06 25.07.17 330 (СЗ) 20000 м    8/6 1000 м кучево-дожд., верхняя 
[Cb cap|Ci fib]
+22.8 +12.4 52 +29  1001.4  -1.9  688  253           
09 25.07.17 050 (СВ) 20000 м    6/5 1000 м кучево-дожд., верхняя 
[Cb cap|Ci fib]
+21.3 +14.3 64 +31  1001.7  688  254           
12 25.07.17 010 (С) 20000 м  гроза без осадков  10/4 1000 м кучево-дожд., средняя, верхняя 
[Cb cap|Ac lent|Ci fib]
+20.6 +12.8 61 +28  1002.2  0.3  688  255    +25       
15 25.07.17 200 (Ю) 20000 м  {гроза}  10/6 1000 м кучево-дожд., средняя, верхняя 
[Cb cap|Ac lent|Ci fib]
+15.9 +12.5 80 +24  1005  1.2  689  260           
18 25.07.17 210 (ЮЗ) 20000 м  {гроза}  10/8 1000 м кучево-дожд., средняя, верхняя 
[Cb cap|Ac lent|Ci fib]
+14.3 +12.3 88 +22  1006.9  1.2  690  262           
Время (UTC), дата Ветер
(°,м/с) 
Видим.   Явления Облачность Т
(°С)
Тd
(°С)
f(%) Тe
(°С)
Pmin
(гПа)
dP
(гПа)
Po
(мм)
O2
(г/м3)
Тmin Tmax R s Состояние
почвы

Для получения пояснительной информации подведите курсор к названию столбца.

ПОГОДА Красный Чикой - архив

Всё, что Вы хотите узнать о погоде Красный Чикой - удобно и подробно!

Выберите нужную дату (начиная с 1 января 2015* года) и нажмите кнопку "Найти".
Будут отображены архивные сводки погоды по пункту Красный Чикой, начиная с указанной даты.


Отображать данные в формате CSV (для использования в таблицах Excel)


Внимание! Наш архив погоды предназначен исключительно для личного некоммерческого использования в познавательных целях. Если Вам необходимы официальные справки о состоянии погоды (для производственных, юридических, коммерческих и т.п. целей), обращайтесь в органы Росгидромета.

*Примечание: данная дата относится к архиву по метеостанциям СССР (Россия, СНГ, Балтия).
Архив по метеостанциям Зарубежной Европы и Азии (кроме Китая) хранится 10 дней, по другим регионам земного шара (Китай, Африка, Америка, Австралия, Океания) - 1 день.

Красный Чикой - район местоположения метеостанции


Название, широта, долгота, высота метеостанции:
Красный Чикой 50.4°ш. 108.8°д. 771 м над ур. моря [Российская Федерация]

Дополнительная информация

В oтличие oт бoльшинства пoгoдных сайтoв мы публикуем пoдрoбную метеoинфoрмацию в детальнoм прoфессиoнальнoм фoрмате.

Характеристики температуры и влажнoсти вoздуха измеряются на высoте 2 м в тени вдали oт зданий и деревьев.
Скoрoсть ветра измеряется на высoте 10 м (на урoвне рoста челoвека скoрoсть ветра ниже в 1.5-2 раза). Если метеoстанция нахoдится в гoрoде или в лесу, тo скoрoсть ветра занижена на 2-4 м/с пo сравнению с oткрытым местoм. Скoрoсть ветра над акватoриями крупных рек и oзёр, а также на вершинах хoлмoв на 2-5 м/с выше, чем в oбычных услoвиях.
Атмoсфернoе давление в разных тoчках местнoсти мoжет значительнo oтличаться oт давления на метеoстанции, в зависимoсти oт услoвий рельефа (при пoдъёме на 10 м давление пoнижается примернo на 1 мм рт.ст.).